Terminal Aerodrome Forecast
Issued by NWS

Home | Current Version | Previous Version | Graphics & Text | Print | Product List | Glossary On
Versions: 1 2 3 4 5 6 7 8 9 10 11 12 13 14 15 16 17 18
000
FTUS43 KTOP 142118 AAB
TAFMHK
TAF AMD
KMHK 142118Z 1421/1518 18005KT 4SM BR OVC008
      TEMPO 1421/1501 5SM BR OVC012
     FM150300 VRB04KT 5SM BR VCSH OVC008
     FM150500 VRB04KT 6SM BR OVC006
     FM151000 35008KT P6SM SKC=

USA.gov is the U.S. government's official web portal to all federal, state and local government web resources and services.